Showing default

COSMOS 1829, 17584

Orbit data source: Space-Track

COSMOS 1829, 17584 is a payload satellite owned by UNKS (CIS) in LEO that was launched on Fri, 13 Mar 1987 UTC via a TSIKLON-3 launch vehicle from the Plesetsk Missile And Space Complex (PKMTR). Payload-class satellites include a variety of spacecraft equipped with specific instruments for various scientific and technological missions. These include communications satellites like Starlink; space stations such as the ISS; scientific satellites like the Hubble; Earth observation satellites from companies like Planet Labs, Umbra, and HawkEye 360; GPS; miniature CubeSats for education and research; and military/defense satellites.

Loading next visibility...
Identifier
17584, 1987-026C
Orbit
LEO
Country
Flag of CISCIS
Related business
Manufacturer
NPO PM
Mission
Defense Communications
Bus & Motor
STRELA-3, Unknown motor
Mass
225 kg wet, 225 kg dry
Launch date (UTC)
1987-03-13 (39 years ago)
Launch vehicle
TSIKLON-3
Launch site
Plesetsk Missile And Space Complex (PKMTR)
Object type
Payload
Rocket body
Debris
Shape & HBR
Cyl, 0.8 m
Radar Cross Section
1.257 m², Large (>1 m²)

Expand to show TLE details & history
Last TLE update: 1 day ago

TLE from 1 day ago
0 COSMOS 1829
1 17584U 87026C   25260.91052098  .00000032  00000-0  11903-3 0  9999
2 17584  82.5708  46.6682 0001403 127.7314 232.3905 12.62710464775042
Epoch: 2025-09-17T21:51Z
TLE epoch observation values (Epoch: 2025-09-17T21:51:09.012Z)
Latitude
0.00001°
Longitude
81.80096°
Altitude
1,415.174 km
Speed
7.153 km/s
True Right ascension
03h 06m 40s
True Declination
0° 00' 00"
Sunlit
Object was in full shadow at epoch
Visualization orbit readout
Latitude
Unknown
Longitude
Unknown
Altitude
Unknown
Speed
Unknown
Apparent Right ascension
Unknown
Apparent Declination
Unknown
Sunlit
N/A
Visualization observer readout
Local Sidereal Time
15:24:35
Azimuth
Unknown
Elevation
Unknown
Doppler factor
Unknown
Orbital elements
Apogee altitude
1,410.19 km
Perigee altitude
1,408.005 km
Semi-major axis
7,787.234 km
Eccentricity
0.00014
Inclination
82.5708°
RAAN
46.6682°
Arg. of periapsis
127.7314°
True anomaly
232.37777°
Mean anomaly
232.3905°
Eccentric anomaly
232.38413°
Mean motion
3.15841 °/min
Orbital period
113.98 mins
BSTAR
0.00011903
Loading maneuver chart data...
Computing Atmospheric mass density...
Loading historical data...
Loading historical data...
Loading historical data...
Loading historical data...
Loading historical data...
Loading historical data...
Loading historical data...

Documentation

Showing up to 5 results
|